Time,TemperatureF,DewpointF,PressureIn,WindDirection,WindDirectionDegrees,WindSpeedMPH,WindSpeedGustMPH,Humidity,HourlyPrecipIn,Conditions,Clouds,dailyrainin,SolarRadiationWatts/m^2,SoftwareType,DateUTC
2013-08-21 00:02:00,57.6,53.4,29.56,West,265,0.0,0.0,86,0.00,,,0.00,0,WeatherCatV1.02B3,2013-08-21 07:02:00,
2013-08-21 00:07:00,57.5,53.3,29.56,West,265,0.0,0.0,86,0.00,,,0.00,0,WeatherCatV1.02B3,2013-08-21 07:07:00,
2013-08-21 00:12:00,57.4,53.6,29.56,West,265,0.0,0.0,87,0.00,,,0.00,0,WeatherCatV1.02B3,2013-08-21 07:12:00,
2013-08-21 00:17:00,57.5,53.7,29.56,West,265,0.0,0.0,87,0.00,,,0.00,0,WeatherCatV1.02B3,2013-08-21 07:17:00,
2013-08-21 00:22:00,57.3,53.1,29.56,West,265,0.0,0.0,86,0.00,,,0.00,0,WeatherCatV1.02B3,2013-08-21 07:22:00,
2013-08-21 00:27:00,56.8,52.7,29.56,West,265,0.0,0.0,86,0.00,,,0.00,0,WeatherCatV1.02B3,2013-08-21 07:27:00,
2013-08-21 00:32:00,56.6,52.5,29.56,West,265,0.0,0.0,86,0.00,,,0.00,0,WeatherCatV1.02B3,2013-08-21 07:32:00,
2013-08-21 00:37:00,56.7,52.9,29.56,West,265,0.0,0.0,87,0.00,,,0.00,0,WeatherCatV1.02B3,2013-08-21 07:37:00,
2013-08-21 00:42:00,56.8,53.0,29.56,West,265,0.0,0.0,87,0.00,,,0.00,0,WeatherCatV1.02B3,2013-08-21 07:42:00,
2013-08-21 00:47:00,56.8,53.0,29.56,West,265,0.0,0.0,87,0.00,,,0.00,0,WeatherCatV1.02B3,2013-08-21 07:47:00,
2013-08-21 00:52:00,56.8,53.0,29.56,West,265,0.0,0.0,87,0.00,,,0.00,0,WeatherCatV1.02B3,2013-08-21 07:52:00,
2013-08-21 00:57:00,56.6,52.8,29.56,West,265,0.0,0.0,87,0.00,,,0.00,0,WeatherCatV1.02B3,2013-08-21 07:57:00,
2013-08-21 01:02:00,56.2,52.4,29.56,West,265,0.0,0.0,87,0.00,,,0.00,0,WeatherCatV1.02B3,2013-08-21 08:02:00,
2013-08-21 01:07:00,56.2,52.4,29.56,West,265,0.0,0.0,87,0.00,,,0.00,0,WeatherCatV1.02B3,2013-08-21 08:07:00,
2013-08-21 01:12:00,56.2,52.4,29.56,West,265,0.0,0.0,87,0.00,,,0.00,0,WeatherCatV1.02B3,2013-08-21 08:12:00,
2013-08-21 01:17:00,56.0,52.2,29.56,West,265,0.0,0.0,87,0.00,,,0.00,0,WeatherCatV1.02B3,2013-08-21 08:17:00,
2013-08-21 01:22:00,55.7,51.9,29.56,West,265,0.0,0.0,87,0.00,,,0.00,0,WeatherCatV1.02B3,2013-08-21 08:22:00,
2013-08-21 01:27:00,55.5,52.0,29.56,West,265,0.0,0.0,88,0.00,,,0.00,0,WeatherCatV1.02B3,2013-08-21 08:27:00,
2013-08-21 01:32:00,55.6,52.1,29.56,West,265,0.0,0.0,88,0.00,,,0.00,0,WeatherCatV1.02B3,2013-08-21 08:32:00,
2013-08-21 01:37:00,55.6,52.4,29.56,West,265,0.0,0.0,89,0.00,,,0.00,0,WeatherCatV1.02B3,2013-08-21 08:37:00,
2013-08-21 01:42:00,55.7,52.2,29.56,West,265,0.0,0.0,88,0.00,,,0.00,0,WeatherCatV1.02B3,2013-08-21 08:42:00,
2013-08-21 01:47:00,55.7,52.5,29.56,West,265,0.0,0.0,89,0.00,,,0.00,0,WeatherCatV1.02B3,2013-08-21 08:47:00,
2013-08-21 01:52:00,55.5,52.0,29.56,West,265,0.0,0.0,88,0.00,,,0.00,0,WeatherCatV1.02B3,2013-08-21 08:52:00,
2013-08-21 01:57:00,55.4,51.9,29.56,West,265,0.0,0.0,88,0.00,,,0.00,0,WeatherCatV1.02B3,2013-08-21 08:57:00,
2013-08-21 02:02:00,54.9,51.4,29.56,West,265,0.0,0.0,88,0.00,,,0.00,0,WeatherCatV1.02B3,2013-08-21 09:02:00,
2013-08-21 02:07:00,54.8,51.6,29.56,West,265,0.0,0.0,89,0.00,,,0.00,0,WeatherCatV1.02B3,2013-08-21 09:07:00,
2013-08-21 02:12:00,54.9,51.7,29.56,West,265,0.0,0.0,89,0.00,,,0.00,0,WeatherCatV1.02B3,2013-08-21 09:12:00,
2013-08-21 02:17:00,55.1,51.9,29.56,West,265,0.0,0.0,89,0.00,,,0.00,0,WeatherCatV1.02B3,2013-08-21 09:17:00,
2013-08-21 02:22:00,54.7,51.5,29.56,West,265,0.0,0.0,89,0.00,,,0.00,0,WeatherCatV1.02B3,2013-08-21 09:22:00,
2013-08-21 02:27:00,54.7,51.5,29.56,West,265,0.0,1.0,89,0.00,,,0.00,0,WeatherCatV1.02B3,2013-08-21 09:27:00,
2013-08-21 02:32:00,54.9,51.7,29.56,West,265,0.0,0.0,89,0.00,,,0.00,0,WeatherCatV1.02B3,2013-08-21 09:32:00,
2013-08-21 02:37:00,55.0,51.8,29.56,West,265,0.0,0.0,89,0.00,,,0.00,0,WeatherCatV1.02B3,2013-08-21 09:37:00,
2013-08-21 02:42:00,54.6,51.4,29.56,West,265,0.0,0.0,89,0.00,,,0.00,0,WeatherCatV1.02B3,2013-08-21 09:42:00,
2013-08-21 02:47:00,54.0,50.8,29.56,West,265,0.0,0.0,89,0.00,,,0.00,0,WeatherCatV1.02B3,2013-08-21 09:47:00,
2013-08-21 02:52:00,54.1,51.2,29.56,West,265,0.0,1.0,90,0.00,,,0.00,0,WeatherCatV1.02B3,2013-08-21 09:52:00,
2013-08-21 02:57:00,54.3,51.4,29.56,West,265,0.0,0.0,90,0.00,,,0.00,0,WeatherCatV1.02B3,2013-08-21 09:57:00,
2013-08-21 03:02:00,54.2,51.3,29.56,West,265,0.0,0.0,90,0.00,,,0.00,0,WeatherCatV1.02B3,2013-08-21 10:02:00,
2013-08-21 03:07:00,54.0,51.4,29.56,West,265,0.0,0.0,91,0.00,,,0.00,0,WeatherCatV1.02B3,2013-08-21 10:07:00,
2013-08-21 03:12:00,54.1,51.2,29.56,West,265,0.0,0.0,90,0.00,,,0.00,0,WeatherCatV1.02B3,2013-08-21 10:12:00,
2013-08-21 03:17:00,53.9,51.0,29.56,West,265,0.0,0.0,90,0.00,,,0.00,0,WeatherCatV1.02B3,2013-08-21 10:17:00,
2013-08-21 03:22:00,53.6,50.7,29.56,West,265,0.0,0.0,90,0.00,,,0.00,0,WeatherCatV1.02B3,2013-08-21 10:22:00,
2013-08-21 03:27:00,53.5,50.6,29.56,West,265,0.0,0.0,90,0.00,,,0.00,0,WeatherCatV1.02B3,2013-08-21 10:27:00,
2013-08-21 03:32:00,53.7,50.8,29.56,West,265,0.0,0.0,90,0.00,,,0.00,0,WeatherCatV1.02B3,2013-08-21 10:32:00,
2013-08-21 03:37:00,53.3,50.4,29.56,West,265,0.0,0.0,90,0.00,,,0.00,0,WeatherCatV1.02B3,2013-08-21 10:37:00,
2013-08-21 03:42:00,53.4,50.5,29.56,West,265,0.0,0.0,90,0.00,,,0.00,0,WeatherCatV1.02B3,2013-08-21 10:42:00,
2013-08-21 03:47:00,53.4,50.5,29.56,West,265,0.0,0.0,90,0.00,,,0.00,0,WeatherCatV1.02B3,2013-08-21 10:47:00,
2013-08-21 03:52:00,52.8,49.9,29.56,West,265,0.0,0.0,90,0.00,,,0.00,0,WeatherCatV1.02B3,2013-08-21 10:52:00,
2013-08-21 03:57:00,53.0,50.1,29.56,West,265,0.0,0.0,90,0.00,,,0.00,0,WeatherCatV1.02B3,2013-08-21 10:57:00,
2013-08-21 04:02:00,52.9,50.3,29.56,West,265,0.0,0.0,91,0.00,,,0.00,0,WeatherCatV1.02B3,2013-08-21 11:02:00,
2013-08-21 04:07:00,53.3,50.7,29.56,West,265,0.0,0.0,91,0.00,,,0.00,0,WeatherCatV1.02B3,2013-08-21 11:07:00,
2013-08-21 04:12:00,53.4,50.8,29.56,West,265,0.0,0.0,91,0.00,,,0.00,0,WeatherCatV1.02B3,2013-08-21 11:12:00,
2013-08-21 04:17:00,53.1,50.5,29.56,West,265,0.0,0.0,91,0.00,,,0.00,0,WeatherCatV1.02B3,2013-08-21 11:17:00,
2013-08-21 04:22:00,52.7,49.8,29.56,West,265,0.0,0.0,90,0.00,,,0.00,0,WeatherCatV1.02B3,2013-08-21 11:22:00,
2013-08-21 04:27:00,52.6,50.0,29.56,West,265,0.0,0.0,91,0.00,,,0.00,0,WeatherCatV1.02B3,2013-08-21 11:27:00,
2013-08-21 04:32:00,52.9,50.3,29.56,West,265,0.0,0.0,91,0.00,,,0.00,0,WeatherCatV1.02B3,2013-08-21 11:32:00,
2013-08-21 04:37:00,52.4,49.6,29.56,West,265,0.0,0.0,90,0.00,,,0.00,0,WeatherCatV1.02B3,2013-08-21 11:37:00,
2013-08-21 04:42:00,51.9,49.4,29.56,West,265,0.0,0.0,91,0.00,,,0.00,0,WeatherCatV1.02B3,2013-08-21 11:42:00,
2013-08-21 04:47:00,52.3,50.0,29.56,West,265,0.0,0.0,92,0.00,,,0.00,0,WeatherCatV1.02B3,2013-08-21 11:47:00,
2013-08-21 04:52:00,52.3,49.8,29.56,West,265,0.0,0.0,91,0.00,,,0.00,0,WeatherCatV1.02B3,2013-08-21 11:52:00,
2013-08-21 04:57:00,52.3,50.0,29.56,West,265,0.0,0.0,92,0.00,,,0.00,0,WeatherCatV1.02B3,2013-08-21 11:57:00,
2013-08-21 05:02:00,52.4,50.1,29.56,West,265,0.0,0.0,92,0.00,,,0.00,0,WeatherCatV1.02B3,2013-08-21 12:02:00,
2013-08-21 05:07:00,52.3,49.8,29.56,West,265,0.0,0.0,91,0.00,,,0.00,0,WeatherCatV1.02B3,2013-08-21 12:07:00,
2013-08-21 05:12:00,52.3,49.8,29.56,West,265,0.0,0.0,91,0.00,,,0.00,0,WeatherCatV1.02B3,2013-08-21 12:12:00,
2013-08-21 05:17:00,52.2,49.7,29.56,West,265,0.0,0.0,91,0.00,,,0.00,0,WeatherCatV1.02B3,2013-08-21 12:17:00,
2013-08-21 05:22:00,52.3,50.0,29.56,West,265,0.0,0.0,92,0.00,,,0.00,0,WeatherCatV1.02B3,2013-08-21 12:22:00,
2013-08-21 05:27:00,52.3,49.8,29.56,West,265,0.0,0.0,91,0.00,,,0.00,0,WeatherCatV1.02B3,2013-08-21 12:27:00,
2013-08-21 05:32:00,52.3,50.0,29.56,NNW,340,0.0,1.0,92,0.00,,,0.00,0,WeatherCatV1.02B3,2013-08-21 12:32:00,
2013-08-21 05:37:00,52.6,50.0,29.56,North,5,0.0,2.0,91,0.00,,,0.00,0,WeatherCatV1.02B3,2013-08-21 12:37:00,
2013-08-21 05:42:00,52.7,50.4,29.56,North,5,0.0,1.0,92,0.00,,,0.00,0,WeatherCatV1.02B3,2013-08-21 12:42:00,
2013-08-21 05:47:00,52.9,50.3,29.56,North,5,0.0,0.0,91,0.00,,,0.00,0,WeatherCatV1.02B3,2013-08-21 12:47:00,
2013-08-21 05:52:00,52.5,49.9,29.56,North,5,0.0,0.0,91,0.00,,,0.00,0,WeatherCatV1.02B3,2013-08-21 12:52:00,
2013-08-21 05:57:00,51.8,49.0,29.56,North,5,0.0,0.0,90,0.00,,,0.00,0,WeatherCatV1.02B3,2013-08-21 12:57:00,
2013-08-21 06:02:00,51.6,48.8,29.56,North,5,0.0,0.0,90,0.00,,,0.00,0,WeatherCatV1.02B3,2013-08-21 13:02:00,
2013-08-21 06:07:00,51.8,49.3,29.56,North,5,0.0,0.0,91,0.00,,,0.00,0,WeatherCatV1.02B3,2013-08-21 13:07:00,
2013-08-21 06:12:00,51.2,48.4,29.56,North,5,0.0,0.0,90,0.00,,,0.00,0,WeatherCatV1.02B3,2013-08-21 13:12:00,
2013-08-21 06:17:00,50.8,48.3,29.56,North,5,0.0,0.0,91,0.00,,,0.00,0,WeatherCatV1.02B3,2013-08-21 13:17:00,
2013-08-21 06:22:00,50.9,48.7,29.56,North,5,0.0,0.0,92,0.00,,,0.00,0,WeatherCatV1.02B3,2013-08-21 13:22:00,
2013-08-21 06:27:00,51.3,49.1,29.56,North,5,0.0,0.0,92,0.00,,,0.00,0,WeatherCatV1.02B3,2013-08-21 13:27:00,
2013-08-21 06:32:00,51.0,48.5,29.56,North,5,0.0,0.0,91,0.00,,,0.00,5,WeatherCatV1.02B3,2013-08-21 13:32:00,
2013-08-21 06:37:00,51.1,48.6,29.56,North,5,0.0,0.0,91,0.00,,,0.00,7,WeatherCatV1.02B3,2013-08-21 13:37:00,
2013-08-21 06:42:00,50.8,48.6,29.56,North,5,0.0,0.0,92,0.00,,,0.00,9,WeatherCatV1.02B3,2013-08-21 13:42:00,
2013-08-21 06:47:00,51.1,48.9,29.56,North,5,0.0,0.0,92,0.00,,,0.00,11,WeatherCatV1.02B3,2013-08-21 13:47:00,
2013-08-21 06:52:00,51.5,49.3,29.56,North,5,0.0,0.0,92,0.00,,,0.00,12,WeatherCatV1.02B3,2013-08-21 13:52:00,
2013-08-21 06:57:00,51.1,48.9,29.56,North,5,0.0,0.0,92,0.00,,,0.00,14,WeatherCatV1.02B3,2013-08-21 13:57:00,
2013-08-21 07:02:00,51.1,48.9,29.56,North,5,0.0,0.0,92,0.00,,,0.00,18,WeatherCatV1.02B3,2013-08-21 14:02:00,
2013-08-21 07:07:00,51.4,49.2,29.56,North,5,0.0,0.0,92,0.00,,,0.00,19,WeatherCatV1.02B3,2013-08-21 14:07:00,
2013-08-21 07:12:00,51.7,49.5,29.56,North,5,0.0,0.0,92,0.00,,,0.00,21,WeatherCatV1.02B3,2013-08-21 14:12:00,
2013-08-21 07:17:00,52.1,49.8,29.56,North,5,0.0,0.0,92,0.00,,,0.00,21,WeatherCatV1.02B3,2013-08-21 14:17:00,
2013-08-21 07:22:00,52.4,50.1,29.56,North,5,0.0,0.0,92,0.00,,,0.00,25,WeatherCatV1.02B3,2013-08-21 14:22:00,
2013-08-21 07:27:00,52.9,50.6,29.56,North,5,0.0,0.0,92,0.00,,,0.00,26,WeatherCatV1.02B3,2013-08-21 14:27:00,
2013-08-21 07:32:00,53.3,50.7,29.56,North,5,0.0,0.0,91,0.00,,,0.00,26,WeatherCatV1.02B3,2013-08-21 14:32:00,
2013-08-21 07:37:00,53.9,51.0,29.56,North,5,0.0,0.0,90,0.00,,,0.00,26,WeatherCatV1.02B3,2013-08-21 14:37:00,
2013-08-21 07:42:00,54.6,51.4,29.56,North,5,0.0,0.0,89,0.00,,,0.00,26,WeatherCatV1.02B3,2013-08-21 14:42:00,
2013-08-21 07:47:00,55.6,52.7,29.56,North,5,0.0,0.0,90,0.00,,,0.00,30,WeatherCatV1.02B3,2013-08-21 14:47:00,
2013-08-21 07:52:00,56.1,52.6,29.56,North,5,0.0,0.0,88,0.00,,,0.00,35,WeatherCatV1.02B3,2013-08-21 14:52:00,
2013-08-21 07:57:00,56.9,53.4,29.56,North,5,0.0,0.0,88,0.00,,,0.00,32,WeatherCatV1.02B3,2013-08-21 14:57:00,
2013-08-21 08:02:00,57.7,53.5,29.56,North,5,0.0,1.0,86,0.00,,,0.00,32,WeatherCatV1.02B3,2013-08-21 15:02:00,
2013-08-21 08:07:00,58.1,53.3,29.56,North,5,0.0,0.0,84,0.00,,,0.00,30,WeatherCatV1.02B3,2013-08-21 15:07:00,
2013-08-21 08:12:00,58.8,54.3,29.56,North,5,0.0,1.0,85,0.00,,,0.00,35,WeatherCatV1.02B3,2013-08-21 15:12:00,
2013-08-21 08:17:00,59.8,55.3,29.56,North,5,0.0,0.0,85,0.00,,,0.00,79,WeatherCatV1.02B3,2013-08-21 15:17:00,
2013-08-21 08:22:00,60.7,55.8,29.56,North,5,0.0,1.0,84,0.00,,,0.00,98,WeatherCatV1.02B3,2013-08-21 15:22:00,
2013-08-21 08:27:00,61.6,56.7,29.56,NNE,23,0.0,0.0,84,0.00,,,0.00,121,WeatherCatV1.02B3,2013-08-21 15:27:00,
2013-08-21 08:32:00,62.6,57.0,29.56,NNE,23,0.0,1.0,82,0.00,,,0.00,316,WeatherCatV1.02B3,2013-08-21 15:32:00,
2013-08-21 08:37:00,64.0,57.3,29.56,SSE,161,0.0,2.0,79,0.00,,,0.00,330,WeatherCatV1.02B3,2013-08-21 15:37:00,
2013-08-21 08:42:00,65.4,57.6,29.56,SE,135,0.0,2.0,76,0.00,,,0.00,348,WeatherCatV1.02B3,2013-08-21 15:42:00,
2013-08-21 08:47:00,66.2,57.7,29.56,SE,146,0.0,2.0,74,0.00,,,0.00,367,WeatherCatV1.02B3,2013-08-21 15:47:00,
2013-08-21 08:52:00,67.1,58.1,29.56,NE,36,0.0,0.0,73,0.00,,,0.00,413,WeatherCatV1.02B3,2013-08-21 15:52:00,
2013-08-21 08:57:00,68.4,58.2,29.56,ESE,116,0.0,0.0,70,0.00,,,0.00,431,WeatherCatV1.02B3,2013-08-21 15:57:00,
2013-08-21 09:02:00,69.1,57.7,29.56,SE,125,0.0,1.0,67,0.00,,,0.00,448,WeatherCatV1.02B3,2013-08-21 16:02:00,
2013-08-21 09:07:00,70.0,58.1,29.56,ESE,107,0.0,1.0,66,0.00,,,0.00,464,WeatherCatV1.02B3,2013-08-21 16:07:00,
2013-08-21 09:12:00,70.6,57.4,29.56,SSW,212,0.0,1.0,63,0.00,,,0.00,480,WeatherCatV1.02B3,2013-08-21 16:12:00,
2013-08-21 09:17:00,71.8,57.6,29.56,SSW,205,0.0,1.0,61,0.00,,,0.00,496,WeatherCatV1.02B3,2013-08-21 16:17:00,
2013-08-21 09:22:00,72.4,57.2,29.56,South,188,0.0,1.0,59,0.00,,,0.00,510,WeatherCatV1.02B3,2013-08-21 16:22:00,
2013-08-21 09:27:00,73.1,57.9,29.56,WSW,238,0.0,1.0,59,0.00,,,0.00,526,WeatherCatV1.02B3,2013-08-21 16:27:00,
2013-08-21 09:32:00,74.2,57.0,29.56,South,170,1.0,2.0,55,0.00,,,0.00,538,WeatherCatV1.02B3,2013-08-21 16:32:00,
2013-08-21 09:37:00,74.2,57.0,29.56,WSW,247,0.0,3.0,55,0.00,,,0.00,555,WeatherCatV1.02B3,2013-08-21 16:37:00,
2013-08-21 09:42:00,74.0,57.3,29.56,SSE,153,0.0,3.0,56,0.00,,,0.00,571,WeatherCatV1.02B3,2013-08-21 16:42:00,
2013-08-21 09:47:00,74.9,58.1,29.56,West,261,0.0,1.0,56,0.00,,,0.00,591,WeatherCatV1.02B3,2013-08-21 16:47:00,
2013-08-21 09:52:00,75.7,57.9,29.56,ESE,119,0.0,1.0,54,0.00,,,0.00,599,WeatherCatV1.02B3,2013-08-21 16:52:00,
2013-08-21 09:57:00,75.9,58.0,29.56,West,267,0.0,3.0,54,0.00,,,0.00,612,WeatherCatV1.02B3,2013-08-21 16:57:00,
2013-08-21 10:02:00,76.7,57.7,29.56,WSW,240,0.0,3.0,52,0.00,,,0.00,626,WeatherCatV1.02B3,2013-08-21 17:02:00,
2013-08-21 10:07:00,77.8,58.2,29.56,SSW,198,1.0,3.0,51,0.00,,,0.00,638,WeatherCatV1.02B3,2013-08-21 17:07:00,
2013-08-21 10:12:00,78.3,57.5,29.56,SSW,209,0.0,1.0,49,0.00,,,0.00,654,WeatherCatV1.02B3,2013-08-21 17:12:00,
2013-08-21 10:17:00,78.7,57.9,29.56,SW,223,1.0,2.0,49,0.00,,,0.00,668,WeatherCatV1.02B3,2013-08-21 17:17:00,
2013-08-21 10:22:00,79.5,58.6,29.56,NNW,331,0.0,1.0,49,0.00,,,0.00,679,WeatherCatV1.02B3,2013-08-21 17:22:00,
2013-08-21 10:27:00,80.0,58.5,29.56,SSE,148,0.0,1.0,48,0.00,,,0.00,691,WeatherCatV1.02B3,2013-08-21 17:27:00,
2013-08-21 10:32:00,80.6,57.9,29.56,NE,49,0.0,4.0,46,0.00,,,0.00,701,WeatherCatV1.02B3,2013-08-21 17:32:00,
2013-08-21 10:38:00,80.2,59.3,29.56,SW,219,0.0,3.0,49,0.00,,,0.00,,WeatherCatV1.02B3,2013-08-21 17:38:00,
2013-08-21 10:43:00,80.5,58.4,29.56,SW,219,0.0,3.0,47,0.00,,,0.00,,WeatherCatV1.02B3,2013-08-21 17:43:00,
2013-08-21 10:48:00,80.9,58.8,29.56,SW,219,0.0,0.0,47,0.00,,,0.00,,WeatherCatV1.02B3,2013-08-21 17:48:00,
2013-08-21 10:53:00,81.1,58.9,29.56,SW,219,0.0,4.0,47,0.00,,,0.00,,WeatherCatV1.02B3,2013-08-21 17:53:00,
2013-08-21 10:58:00,81.4,59.2,29.56,SW,219,0.0,3.0,47,0.00,,,0.00,,WeatherCatV1.02B3,2013-08-21 17:58:00,
2013-08-21 11:03:00,81.9,58.4,29.56,SW,219,0.0,3.0,45,0.00,,,0.00,,WeatherCatV1.02B3,2013-08-21 18:03:00,
2013-08-21 11:08:00,82.3,58.8,29.56,SW,219,2.0,3.0,45,0.00,,,0.00,,WeatherCatV1.02B3,2013-08-21 18:08:00,
2013-08-21 11:13:00,82.4,58.9,29.56,SW,222,0.0,1.0,45,0.00,,,0.00,,WeatherCatV1.02B3,2013-08-21 18:13:00,
2013-08-21 11:18:00,82.7,58.5,29.56,South,176,0.0,4.0,44,0.00,,,0.00,,WeatherCatV1.02B3,2013-08-21 18:18:00,
2013-08-21 11:23:00,82.9,59.3,29.56,South,179,0.0,1.0,45,0.00,,,0.00,,WeatherCatV1.02B3,2013-08-21 18:23:00,
2013-08-21 11:28:00,83.5,59.3,29.56,SSW,197,0.0,5.0,44,0.00,,,0.00,,WeatherCatV1.02B3,2013-08-21 18:28:00,
2013-08-21 11:33:00,83.6,58.7,29.56,SSW,205,3.0,5.0,43,0.00,,,0.00,,WeatherCatV1.02B3,2013-08-21 18:33:00,
2013-08-21 11:38:00,83.4,59.8,29.56,SW,216,5.0,5.0,45,0.00,,,0.00,,WeatherCatV1.02B3,2013-08-21 18:38:00,
2013-08-21 11:43:00,83.7,60.7,29.56,SW,219,1.0,1.0,46,0.00,,,0.00,,WeatherCatV1.02B3,2013-08-21 18:43:00,
2013-08-21 11:48:00,84.2,60.5,29.56,SW,229,0.0,2.0,45,0.00,,,0.00,,WeatherCatV1.02B3,2013-08-21 18:48:00,
2013-08-21 11:53:00,84.3,60.0,29.56,SW,214,3.0,6.0,44,0.00,,,0.00,,WeatherCatV1.02B3,2013-08-21 18:53:00,
2013-08-21 11:58:00,84.4,60.7,29.56,SW,217,5.0,5.0,45,0.00,,,0.00,,WeatherCatV1.02B3,2013-08-21 18:58:00,
2013-08-21 12:03:00,84.5,60.8,29.56,SW,229,4.0,4.0,45,0.00,,,0.00,,WeatherCatV1.02B3,2013-08-21 19:03:00,
2013-08-21 12:08:00,84.5,60.2,29.56,SW,229,5.0,7.0,44,0.00,,,0.00,,WeatherCatV1.02B3,2013-08-21 19:08:00,
2013-08-21 12:13:00,84.4,60.7,29.56,WSW,242,3.0,7.0,45,0.00,,,0.00,,WeatherCatV1.02B3,2013-08-21 19:13:00,
2013-08-21 12:18:00,84.7,61.0,29.56,WSW,239,0.0,4.0,45,0.00,,,0.00,,WeatherCatV1.02B3,2013-08-21 19:18:00,
2013-08-21 12:23:00,84.8,60.4,29.56,SW,221,0.0,7.0,44,0.00,,,0.00,,WeatherCatV1.02B3,2013-08-21 19:23:00,
2013-08-21 12:28:00,85.2,60.8,29.56,SW,214,5.0,7.0,44,0.00,,,0.00,,WeatherCatV1.02B3,2013-08-21 19:28:00,
2013-08-21 12:33:00,85.6,61.2,29.56,SSW,212,3.0,6.0,44,0.00,,,0.00,,WeatherCatV1.02B3,2013-08-21 19:33:00,
2013-08-21 12:38:00,85.7,59.3,29.56,SW,229,6.0,12.0,41,0.00,,,0.00,,WeatherCatV1.02B3,2013-08-21 19:38:00,
2013-08-21 12:43:00,85.8,57.2,29.56,SW,227,2.0,11.0,38,0.00,,,0.00,,WeatherCatV1.02B3,2013-08-21 19:43:00,
2013-08-21 12:48:00,86.0,55.1,29.56,SW,236,7.0,11.0,35,0.00,,,0.00,,WeatherCatV1.02B3,2013-08-21 19:48:00,
2013-08-21 12:53:00,86.4,56.3,29.56,SW,222,9.0,11.0,36,0.00,,,0.00,,WeatherCatV1.02B3,2013-08-21 19:53:00,
2013-08-21 12:58:00,86.3,56.2,29.56,SW,232,7.0,10.0,36,0.00,,,0.00,,WeatherCatV1.02B3,2013-08-21 19:58:00,
2013-08-21 13:03:00,86.1,56.0,29.56,SW,227,5.0,6.0,36,0.00,,,0.00,,WeatherCatV1.02B3,2013-08-21 20:03:00,
2013-08-21 13:08:00,85.9,55.8,29.56,WSW,254,5.0,7.0,36,0.00,,,0.00,,WeatherCatV1.02B3,2013-08-21 20:08:00,
2013-08-21 13:13:00,85.9,55.8,29.56,SW,216,7.0,11.0,36,0.00,,,0.00,,WeatherCatV1.02B3,2013-08-21 20:13:00,
2013-08-21 13:18:00,85.9,55.0,29.56,WSW,242,4.0,8.0,35,0.00,,,0.00,,WeatherCatV1.02B3,2013-08-21 20:18:00,
2013-08-21 13:23:00,86.3,54.6,29.56,SW,217,2.0,6.0,34,0.00,,,0.00,,WeatherCatV1.02B3,2013-08-21 20:23:00,
2013-08-21 13:28:00,86.7,54.1,29.56,SW,215,4.0,7.0,33,0.00,,,0.00,,WeatherCatV1.02B3,2013-08-21 20:28:00,
2013-08-21 13:33:00,86.7,54.9,29.56,SW,230,2.0,8.0,34,0.00,,,0.00,,WeatherCatV1.02B3,2013-08-21 20:33:00,
2013-08-21 13:38:00,86.6,54.0,29.56,WSW,241,7.0,8.0,33,0.00,,,0.00,,WeatherCatV1.02B3,2013-08-21 20:38:00,
2013-08-21 13:43:00,86.2,53.7,29.56,SSW,206,10.0,10.0,33,0.00,,,0.00,,WeatherCatV1.02B3,2013-08-21 20:43:00,
2013-08-21 13:48:00,86.0,51.8,29.56,SW,232,5.0,11.0,31,0.00,,,0.00,,WeatherCatV1.02B3,2013-08-21 20:48:00,
2013-08-21 13:53:00,86.0,50.9,29.56,SW,230,6.0,11.0,30,0.00,,,0.00,,WeatherCatV1.02B3,2013-08-21 20:53:00,
2013-08-21 13:58:00,86.0,50.9,29.56,SW,227,5.0,8.0,30,0.00,,,0.00,,WeatherCatV1.02B3,2013-08-21 20:58:00,
2013-08-21 14:03:00,86.4,49.4,29.56,SW,227,7.0,11.0,28,0.00,,,0.00,,WeatherCatV1.02B3,2013-08-21 21:03:00,
2013-08-21 14:08:00,86.6,48.6,29.56,SW,231,5.0,11.0,27,0.00,,,0.00,,WeatherCatV1.02B3,2013-08-21 21:08:00,
2013-08-21 14:13:00,86.5,49.5,29.56,WSW,240,6.0,6.0,28,0.00,,,0.00,,WeatherCatV1.02B3,2013-08-21 21:13:00,
2013-08-21 14:18:00,86.8,51.6,29.56,WSW,238,6.0,10.0,30,0.00,,,0.00,,WeatherCatV1.02B3,2013-08-21 21:18:00,
2013-08-21 14:23:00,86.9,49.8,29.56,SW,215,3.0,11.0,28,0.00,,,0.00,,WeatherCatV1.02B3,2013-08-21 21:23:00,
2013-08-21 14:28:00,86.9,51.7,29.56,SW,216,4.0,8.0,30,0.00,,,0.00,,WeatherCatV1.02B3,2013-08-21 21:28:00,
2013-08-21 14:33:00,87.3,50.2,29.56,SSW,213,5.0,11.0,28,0.00,,,0.00,,WeatherCatV1.02B3,2013-08-21 21:33:00,
2013-08-21 14:38:00,87.3,50.2,29.56,SW,233,7.0,9.0,28,0.00,,,0.00,,WeatherCatV1.02B3,2013-08-21 21:38:00,
2013-08-21 14:43:00,87.4,51.2,29.56,SW,221,7.0,7.0,29,0.00,,,0.00,,WeatherCatV1.02B3,2013-08-21 21:43:00,
2013-08-21 14:48:00,87.6,50.4,29.56,SW,230,6.0,7.0,28,0.00,,,0.00,,WeatherCatV1.02B3,2013-08-21 21:48:00,
2013-08-21 14:53:00,87.7,48.5,29.56,SW,225,8.0,8.0,26,0.00,,,0.00,,WeatherCatV1.02B3,2013-08-21 21:53:00,
2013-08-21 14:58:00,87.8,49.6,29.56,SW,236,7.0,10.0,27,0.00,,,0.00,,WeatherCatV1.02B3,2013-08-21 21:58:00,
2013-08-21 15:03:00,88.2,50.0,29.56,WSW,247,9.0,11.0,27,0.00,,,0.00,,WeatherCatV1.02B3,2013-08-21 22:03:00,
2013-08-21 15:08:00,88.5,48.2,29.56,SSW,196,8.0,13.0,25,0.00,,,0.00,,WeatherCatV1.02B3,2013-08-21 22:08:00,
2013-08-21 15:13:00,88.3,49.0,29.56,SW,217,5.0,8.0,26,0.00,,,0.00,,WeatherCatV1.02B3,2013-08-21 22:13:00,
2013-08-21 15:18:00,88.1,49.9,29.56,SW,220,10.0,10.0,27,0.00,,,0.00,,WeatherCatV1.02B3,2013-08-21 22:18:00,
2013-08-21 15:23:00,88.4,49.1,29.56,WSW,246,3.0,5.0,26,0.00,,,0.00,,WeatherCatV1.02B3,2013-08-21 22:23:00,
2013-08-21 15:28:00,88.4,49.1,29.56,SW,230,6.0,9.0,26,0.00,,,0.00,,WeatherCatV1.02B3,2013-08-21 22:28:00,
2013-08-21 15:33:00,88.2,50.0,29.56,SW,236,8.0,8.0,27,0.00,,,0.00,,WeatherCatV1.02B3,2013-08-21 22:33:00,
2013-08-21 15:38:00,88.0,48.8,29.56,South,186,2.0,9.0,26,0.00,,,0.00,,WeatherCatV1.02B3,2013-08-21 22:38:00,
2013-08-21 15:43:00,87.6,49.4,29.56,SW,220,2.0,11.0,27,0.00,,,0.00,,WeatherCatV1.02B3,2013-08-21 22:43:00,
2013-08-21 15:48:00,87.9,48.7,29.56,SW,219,7.0,9.0,26,0.00,,,0.00,,WeatherCatV1.02B3,2013-08-21 22:48:00,
2013-08-21 15:53:00,88.1,48.9,29.56,South,177,6.0,8.0,26,0.00,,,0.00,,WeatherCatV1.02B3,2013-08-21 22:53:00,
2013-08-21 15:58:00,87.7,46.4,29.56,SW,216,6.0,10.0,24,0.00,,,0.00,,WeatherCatV1.02B3,2013-08-21 22:58:00,
2013-08-21 16:03:00,87.7,45.3,29.56,SSW,210,4.0,8.0,23,0.00,,,0.00,,WeatherCatV1.02B3,2013-08-21 23:03:00,
2013-08-21 16:08:00,87.9,45.4,29.56,SW,217,6.0,11.0,23,0.00,,,0.00,,WeatherCatV1.02B3,2013-08-21 23:08:00,
2013-08-21 16:13:00,88.0,47.7,29.56,SW,228,5.0,9.0,25,0.00,,,0.00,,WeatherCatV1.02B3,2013-08-21 23:13:00,
2013-08-21 16:18:00,88.3,48.0,29.56,SW,230,4.0,9.0,25,0.00,,,0.00,,WeatherCatV1.02B3,2013-08-21 23:18:00,
2013-08-21 16:23:00,88.6,48.2,29.56,WSW,248,5.0,9.0,25,0.00,,,0.00,,WeatherCatV1.02B3,2013-08-21 23:23:00,
2013-08-21 16:28:00,88.8,48.4,29.56,SW,220,1.0,10.0,25,0.00,,,0.00,,WeatherCatV1.02B3,2013-08-21 23:28:00,
2013-08-21 16:33:00,89.1,47.6,29.56,WSW,240,4.0,7.0,24,0.00,,,0.00,,WeatherCatV1.02B3,2013-08-21 23:33:00,
2013-08-21 16:38:00,89.1,48.7,29.56,SW,227,5.0,9.0,25,0.00,,,0.00,,WeatherCatV1.02B3,2013-08-21 23:38:00,
2013-08-21 16:43:00,88.6,47.1,29.56,SW,232,6.0,10.0,24,0.00,,,0.00,,WeatherCatV1.02B3,2013-08-21 23:43:00,
2013-08-21 16:48:00,88.1,46.7,29.56,SW,236,6.0,8.0,24,0.00,,,0.00,,WeatherCatV1.02B3,2013-08-21 23:48:00,
2013-08-21 16:53:00,88.2,46.8,29.56,SW,235,5.0,9.0,24,0.00,,,0.00,,WeatherCatV1.02B3,2013-08-21 23:53:00,
2013-08-21 16:58:00,88.2,46.8,29.56,SSW,202,5.0,7.0,24,0.00,,,0.00,,WeatherCatV1.02B3,2013-08-21 23:58:00,
2013-08-21 17:03:00,88.2,44.5,29.56,SSW,211,5.0,5.0,22,0.00,,,0.00,,WeatherCatV1.02B3,2013-08-22 00:03:00,
2013-08-21 17:08:00,88.4,44.7,29.56,SSE,165,3.0,6.0,22,0.00,,,0.00,,WeatherCatV1.02B3,2013-08-22 00:08:00,
2013-08-21 17:13:00,88.5,43.5,29.56,SW,221,6.0,7.0,21,0.00,,,0.00,,WeatherCatV1.02B3,2013-08-22 00:13:00,
2013-08-21 17:18:00,88.3,42.1,29.56,SW,216,4.0,6.0,20,0.00,,,0.00,,WeatherCatV1.02B3,2013-08-22 00:18:00,
2013-08-21 17:23:00,88.3,45.8,29.56,SW,230,2.0,4.0,23,0.00,,,0.00,,WeatherCatV1.02B3,2013-08-22 00:23:00,
2013-08-21 17:28:00,88.4,49.1,29.56,SW,233,4.0,4.0,26,0.00,,,0.00,,WeatherCatV1.02B3,2013-08-22 00:28:00,
2013-08-21 17:33:00,88.2,48.9,29.56,SW,229,0.0,5.0,26,0.00,,,0.00,,WeatherCatV1.02B3,2013-08-22 00:33:00,
2013-08-21 17:38:00,87.9,48.7,29.56,SW,219,3.0,6.0,26,0.00,,,0.00,,WeatherCatV1.02B3,2013-08-22 00:38:00,
2013-08-21 17:43:00,87.6,51.4,29.56,SW,219,3.0,5.0,29,0.00,,,0.00,,WeatherCatV1.02B3,2013-08-22 00:43:00,
2013-08-21 17:48:00,87.3,50.2,29.56,SW,219,3.0,4.0,28,0.00,,,0.00,,WeatherCatV1.02B3,2013-08-22 00:48:00,
2013-08-21 17:53:00,87.2,52.0,29.56,SW,219,5.0,5.0,30,0.00,,,0.00,,WeatherCatV1.02B3,2013-08-22 00:53:00,
2013-08-21 17:58:00,87.0,50.9,29.56,SSW,211,0.0,4.0,29,0.00,,,0.00,,WeatherCatV1.02B3,2013-08-22 00:58:00,
2013-08-21 18:03:00,87.0,52.7,29.56,SSW,209,0.0,5.0,31,0.00,,,0.00,,WeatherCatV1.02B3,2013-08-22 01:03:00,
2013-08-21 18:09:00,86.6,52.3,29.56,SSW,211,1.0,1.0,31,0.00,,,0.00,,WeatherCatV1.02B3,2013-08-22 01:09:00,
2013-08-21 18:13:00,86.4,53.0,29.56,SW,215,0.0,3.0,32,0.00,,,0.00,,WeatherCatV1.02B3,2013-08-22 01:13:00,
2013-08-21 18:19:00,86.2,54.5,29.56,SW,216,0.0,0.0,34,0.00,,,0.00,,WeatherCatV1.02B3,2013-08-22 01:19:00,
2013-08-21 18:24:00,85.5,54.7,29.56,SW,216,0.0,0.0,35,0.00,,,0.00,,WeatherCatV1.02B3,2013-08-22 01:24:00,
2013-08-21 18:29:00,84.9,54.9,29.56,SW,216,3.0,4.0,36,0.00,,,0.00,,WeatherCatV1.02B3,2013-08-22 01:29:00,
2013-08-21 18:34:00,84.2,55.1,29.56,SSW,211,0.0,3.0,37,0.00,,,0.00,,WeatherCatV1.02B3,2013-08-22 01:34:00,
2013-08-21 18:39:00,83.6,54.5,29.56,SSW,211,0.0,0.0,37,0.00,,,0.00,,WeatherCatV1.02B3,2013-08-22 01:39:00,
2013-08-21 18:44:00,83.2,54.2,29.56,SSW,211,3.0,3.0,37,0.00,,,0.00,,WeatherCatV1.02B3,2013-08-22 01:44:00,
2013-08-21 18:49:00,82.7,54.5,29.56,SSW,211,0.0,1.0,38,0.00,,,0.00,,WeatherCatV1.02B3,2013-08-22 01:49:00,
2013-08-21 18:54:00,82.1,54.7,29.56,SSW,198,0.0,6.0,39,0.00,,,0.00,,WeatherCatV1.02B3,2013-08-22 01:54:00,
2013-08-21 18:59:00,81.3,54.6,29.56,SSW,198,0.0,2.0,40,0.00,,,0.00,,WeatherCatV1.02B3,2013-08-22 01:59:00,
2013-08-21 19:04:00,80.6,54.7,29.56,SSW,198,0.0,0.0,41,0.00,,,0.00,,WeatherCatV1.02B3,2013-08-22 02:04:00,
2013-08-21 19:09:00,79.8,55.3,29.56,SSW,198,0.0,3.0,43,0.00,,,0.00,,WeatherCatV1.02B3,2013-08-22 02:09:00,
2013-08-21 19:14:00,79.4,54.9,29.56,SSW,198,0.0,4.0,43,0.00,,,0.00,,WeatherCatV1.02B3,2013-08-22 02:14:00,
2013-08-21 19:19:00,78.7,54.9,29.56,SSW,198,0.0,0.0,44,0.00,,,0.00,,WeatherCatV1.02B3,2013-08-22 02:19:00,
2013-08-21 19:24:00,78.0,54.9,29.56,SSW,198,0.0,0.0,45,0.00,,,0.00,,WeatherCatV1.02B3,2013-08-22 02:24:00,
2013-08-21 19:29:00,77.5,55.1,29.56,SSW,198,0.0,0.0,46,0.00,,,0.00,,WeatherCatV1.02B3,2013-08-22 02:29:00,
2013-08-21 19:34:00,77.0,54.6,29.56,SSW,198,0.0,0.0,46,0.00,,,0.00,,WeatherCatV1.02B3,2013-08-22 02:34:00,
2013-08-21 19:39:00,76.4,54.7,29.56,SSW,198,0.0,0.0,47,0.00,,,0.00,,WeatherCatV1.02B3,2013-08-22 02:39:00,
2013-08-21 19:44:00,75.7,54.6,29.56,SSW,198,3.0,3.0,48,0.00,,,0.00,,WeatherCatV1.02B3,2013-08-22 02:44:00,
2013-08-21 19:49:00,75.0,54.5,29.56,SSW,198,0.0,0.0,49,0.00,,,0.00,,WeatherCatV1.02B3,2013-08-22 02:49:00,
2013-08-21 19:54:00,74.2,54.9,29.56,SSW,198,0.0,0.0,51,0.00,,,0.00,,WeatherCatV1.02B3,2013-08-22 02:54:00,
2013-08-21 19:59:00,73.7,55.0,29.56,SSW,198,0.0,0.0,52,0.00,,,0.00,,WeatherCatV1.02B3,2013-08-22 02:59:00,
2013-08-21 20:04:00,73.2,55.0,29.56,SSW,198,0.0,0.0,53,0.00,,,0.00,,WeatherCatV1.02B3,2013-08-22 03:04:00,
2013-08-21 20:09:00,72.7,54.6,29.56,SSW,198,0.0,0.0,53,0.00,,,0.00,,WeatherCatV1.02B3,2013-08-22 03:09:00,
2013-08-21 20:14:00,72.3,55.2,29.56,SSW,198,0.0,0.0,55,0.00,,,0.00,,WeatherCatV1.02B3,2013-08-22 03:14:00,
2013-08-21 20:19:00,71.9,55.3,29.56,SSW,198,0.0,0.0,56,0.00,,,0.00,,WeatherCatV1.02B3,2013-08-22 03:19:00,
2013-08-21 20:24:00,71.5,55.0,29.56,SSW,198,0.0,0.0,56,0.00,,,0.00,,WeatherCatV1.02B3,2013-08-22 03:24:00,
2013-08-21 20:29:00,71.0,55.0,29.56,SSW,198,0.0,0.0,57,0.00,,,0.00,,WeatherCatV1.02B3,2013-08-22 03:29:00,
2013-08-21 20:34:00,70.6,54.6,29.56,SSW,198,0.0,0.0,57,0.00,,,0.00,,WeatherCatV1.02B3,2013-08-22 03:34:00,
2013-08-21 20:39:00,70.2,54.2,29.56,SSW,198,0.0,0.0,57,0.00,,,0.00,,WeatherCatV1.02B3,2013-08-22 03:39:00,
2013-08-21 20:44:00,69.7,54.7,29.56,SSW,198,0.0,0.0,59,0.00,,,0.00,,WeatherCatV1.02B3,2013-08-22 03:44:00,
2013-08-21 20:49:00,69.4,54.9,29.56,SSW,198,0.0,0.0,60,0.00,,,0.00,,WeatherCatV1.02B3,2013-08-22 03:49:00,
2013-08-21 20:54:00,69.1,54.6,29.56,SSW,198,0.0,0.0,60,0.00,,,0.00,,WeatherCatV1.02B3,2013-08-22 03:54:00,
2013-08-21 20:59:00,68.8,54.3,29.56,SSW,198,0.0,0.0,60,0.00,,,0.00,,WeatherCatV1.02B3,2013-08-22 03:59:00,
2013-08-21 21:01:00,68.7,54.2,29.56,SSW,198,0.0,0.0,60,0.00,,,0.00,,WeatherCatV1.02B3,2013-08-22 04:01:00,
2013-08-21 21:06:00,68.4,54.0,29.56,SSW,198,0.0,0.0,60,0.00,,,0.00,,WeatherCatV1.02B3,2013-08-22 04:06:00,
2013-08-21 21:11:00,67.9,53.5,29.56,SSW,198,0.0,0.0,60,0.00,,,0.00,,WeatherCatV1.02B3,2013-08-22 04:11:00,
2013-08-21 21:16:00,67.5,53.6,29.56,SSW,198,0.0,0.0,61,0.00,,,0.00,,WeatherCatV1.02B3,2013-08-22 04:16:00,
2013-08-21 21:21:00,67.3,53.8,29.56,SSW,198,0.0,0.0,62,0.00,,,0.00,,WeatherCatV1.02B3,2013-08-22 04:21:00,
2013-08-21 21:26:00,67.0,53.5,29.56,SSW,198,0.0,0.0,62,0.00,,,0.00,,WeatherCatV1.02B3,2013-08-22 04:26:00,
2013-08-21 21:31:00,66.7,53.3,29.56,SSW,198,0.0,0.0,62,0.00,,,0.00,,WeatherCatV1.02B3,2013-08-22 04:31:00,
2013-08-21 21:36:00,66.5,53.1,29.56,SSW,198,0.0,0.0,62,0.00,,,0.00,,WeatherCatV1.02B3,2013-08-22 04:36:00,
2013-08-21 21:41:00,66.2,52.8,29.56,SSW,198,0.0,0.0,62,0.00,,,0.00,,WeatherCatV1.02B3,2013-08-22 04:41:00,
2013-08-21 21:46:00,65.9,52.5,29.56,SSW,198,0.0,0.0,62,0.00,,,0.00,,WeatherCatV1.02B3,2013-08-22 04:46:00,
2013-08-21 21:51:00,65.8,53.3,29.56,SSW,198,0.0,0.0,64,0.00,,,0.00,,WeatherCatV1.02B3,2013-08-22 04:51:00,
2013-08-21 21:56:00,65.6,53.1,29.56,SSW,198,0.0,0.0,64,0.00,,,0.00,,WeatherCatV1.02B3,2013-08-22 04:56:00,
2013-08-21 22:01:00,65.3,52.8,29.56,SSW,198,0.0,0.0,64,0.00,,,0.00,,WeatherCatV1.02B3,2013-08-22 05:01:00,
2013-08-21 22:06:00,65.0,52.9,29.56,SSW,198,0.0,0.0,65,0.00,,,0.00,,WeatherCatV1.02B3,2013-08-22 05:06:00,
2013-08-21 22:11:00,64.7,52.7,29.62,SSW,198,0.0,0.0,65,0.00,,,0.00,,WeatherCatV1.02B3,2013-08-22 05:11:00,
2013-08-21 22:16:00,64.4,52.4,29.62,SSW,198,0.0,0.0,65,0.00,,,0.00,,WeatherCatV1.02B3,2013-08-22 05:16:00,
2013-08-21 22:21:00,64.2,52.2,29.62,SSW,198,0.0,0.0,65,0.00,,,0.00,,WeatherCatV1.02B3,2013-08-22 05:21:00,
2013-08-21 22:26:00,63.9,52.3,29.62,SSW,198,0.0,0.0,66,0.00,,,0.00,,WeatherCatV1.02B3,2013-08-22 05:26:00,
2013-08-21 22:31:00,63.8,53.0,29.62,SSW,198,0.0,0.0,68,0.00,,,0.00,,WeatherCatV1.02B3,2013-08-22 05:31:00,
2013-08-21 22:36:00,63.6,52.8,29.62,SSW,198,0.0,0.0,68,0.00,,,0.00,,WeatherCatV1.02B3,2013-08-22 05:36:00,
2013-08-21 22:41:00,63.4,52.6,29.62,SSW,198,0.0,0.0,68,0.00,,,0.00,,WeatherCatV1.02B3,2013-08-22 05:41:00,
2013-08-21 22:46:00,63.2,52.1,29.62,SSW,198,0.0,0.0,67,0.00,,,0.00,,WeatherCatV1.02B3,2013-08-22 05:46:00,
2013-08-21 22:51:00,63.1,52.4,29.62,SSW,198,0.0,0.0,68,0.00,,,0.00,,WeatherCatV1.02B3,2013-08-22 05:51:00,
2013-08-21 22:57:00,62.9,53.0,29.62,SSW,198,0.0,0.0,70,0.00,,,0.00,,WeatherCatV1.02B3,2013-08-22 05:57:00,
2013-08-21 23:02:00,62.7,52.8,29.62,SSW,198,0.0,0.0,70,0.00,,,0.00,,WeatherCatV1.02B3,2013-08-22 06:02:00,
2013-08-21 23:07:00,62.5,52.2,29.62,SSW,198,0.0,0.0,69,0.00,,,0.00,,WeatherCatV1.02B3,2013-08-22 06:07:00,
2013-08-21 23:12:00,62.2,52.3,29.62,SSW,198,0.0,0.0,70,0.00,,,0.00,,WeatherCatV1.02B3,2013-08-22 06:12:00,
2013-08-21 23:17:00,62.1,53.0,29.62,SSW,198,0.0,0.0,72,0.00,,,0.00,,WeatherCatV1.02B3,2013-08-22 06:17:00,
2013-08-21 23:22:00,61.9,52.0,29.62,SSW,198,0.0,0.0,70,0.00,,,0.00,,WeatherCatV1.02B3,2013-08-22 06:22:00,
2013-08-21 23:27:00,61.7,52.2,29.62,SSW,198,0.0,0.0,71,0.00,,,0.00,,WeatherCatV1.02B3,2013-08-22 06:27:00,
2013-08-21 23:32:00,61.5,51.2,29.62,SSW,198,0.0,0.0,69,0.00,,,0.00,,WeatherCatV1.02B3,2013-08-22 06:32:00,
2013-08-21 23:37:00,61.3,51.8,29.62,SSW,198,0.0,0.0,71,0.00,,,0.00,,WeatherCatV1.02B3,2013-08-22 06:37:00,
2013-08-21 23:42:00,61.0,51.5,29.62,SSW,198,0.0,0.0,71,0.00,,,0.00,,WeatherCatV1.02B3,2013-08-22 06:42:00,
2013-08-21 23:47:00,60.8,51.7,29.62,SSW,198,0.0,0.0,72,0.00,,,0.00,,WeatherCatV1.02B3,2013-08-22 06:47:00,
2013-08-21 23:52:00,60.7,51.2,29.62,SSW,198,0.0,0.0,71,0.00,,,0.00,,WeatherCatV1.02B3,2013-08-22 06:52:00,
2013-08-21 23:57:00,60.5,51.4,29.62,SSW,198,0.0,0.0,72,0.00,,,0.00,,WeatherCatV1.02B3,2013-08-22 06:57:00,